Tracking 19176 objects as of 27-May-2018
HD Live streaming from Space Station
objects crossing your sky now

NOAA 16 DEB

Track NOAA 16 DEB now!
10-day predictions


NORAD ID: 42366
Int'l Code: 2000-055RJ
Perigee: 742.5 km
Apogee: 846.6 km
Inclination: 98.8 °
Period: 100.6 minutes
Semi major axis: 7165 km
RCS: Unknown
Launch date: September 21, 2000
Source: United States (US)
Launch site: AIR FORCE WESTERN TEST RANGE (AFWTR)

Note: This is SATELLITE DEBRIS
aabbcc
Your satellite tracking list
Your tracking list is empty




NASA's NSSDC Master Catalog

Two Line Element Set (TLE):
1 42366U 00055RJ  18147.09719574  .00001298  00000-0  49375-3 0  9995
2 42366  98.8485 245.2564 0072629 329.8829  29.8186 14.31284622119031
Source of the keplerian elements: AFSPC